EFW1RF EGKK-LEAL

Flight info

Callsign EFW1RF
Flight time 2h 4m
Altitude 35000
Route SFD Y47 BENBO UY47 DRAKE L151 SITET UN859 SOPIL DCT BALAN DCT LMG DCT PIMQO/N0451F370 DCT AGN DCT ANETO DCT POSSY DCT XIMPE DCT RIMES N860 VLC
Aircraft A320/M-SDE3FGHIJ1RWXY/SB1

Departure

Time 2026-05-07 07:22
Airport London Gatwick Airport (EGKK)

Arrival

Time 2026-05-07 09:27
Airport Alicante-Elche Miguel Hernández Airport (LEAL)
Time Latitude Longitude Altitude Speed Heading
2026-05-07 06:36 51.15530 -0.16600 213 ft 0 kts 348°
2026-05-07 07:09 51.15522 -0.16598 205 ft 4 kts 347°
2026-05-07 07:09 51.15505 -0.16591 213 ft 4 kts 347°
2026-05-07 07:10 51.15479 -0.16585 213 ft 4 kts
2026-05-07 07:10 51.15461 -0.16594 210 ft 2 kts 75°
2026-05-07 07:10 51.15460 -0.16597 211 ft 0 kts 77°
2026-05-07 07:13 51.15460 -0.16596 212 ft 1 kts 77°
2026-05-07 07:13 51.15464 -0.16564 210 ft 4 kts 82°
2026-05-07 07:13 51.15448 -0.16524 211 ft 5 kts 147°
2026-05-07 07:14 51.15404 -0.16504 207 ft 7 kts 166°
2026-05-07 07:14 51.15368 -0.16530 215 ft 7 kts 239°
2026-05-07 07:14 51.15354 -0.16614 208 ft 9 kts 258°
2026-05-07 07:14 51.15329 -0.16699 205 ft 9 kts 234°
2026-05-07 07:15 51.15306 -0.16805 210 ft 11 kts 257°
2026-05-07 07:15 51.15288 -0.16936 216 ft 13 kts 257°
2026-05-07 07:15 51.15266 -0.17091 208 ft 15 kts 257°
2026-05-07 07:15 51.15242 -0.17269 213 ft 18 kts 258°
2026-05-07 07:16 51.15216 -0.17470 208 ft 20 kts 258°
2026-05-07 07:16 51.15184 -0.17693 210 ft 22 kts 257°
2026-05-07 07:16 51.15149 -0.17937 205 ft 24 kts 257°
2026-05-07 07:16 51.15113 -0.18203 214 ft 26 kts 258°
2026-05-07 07:17 51.15072 -0.18494 208 ft 28 kts 257°
2026-05-07 07:17 51.15027 -0.18803 212 ft 29 kts 257°
2026-05-07 07:17 51.14985 -0.19127 213 ft 30 kts 258°
2026-05-07 07:17 51.14941 -0.19451 215 ft 30 kts 257°
2026-05-07 07:18 51.14898 -0.19758 216 ft 19 kts 258°
2026-05-07 07:18 51.14868 -0.19973 210 ft 21 kts 257°
2026-05-07 07:18 51.14848 -0.20129 204 ft 13 kts 258°
2026-05-07 07:18 51.14824 -0.20291 214 ft 16 kts 257°
2026-05-07 07:19 51.14796 -0.20475 213 ft 18 kts 256°
2026-05-07 07:19 51.14766 -0.20675 208 ft 20 kts 257°
2026-05-07 07:19 51.14739 -0.20897 211 ft 21 kts 258°
2026-05-07 07:19 51.14707 -0.21140 210 ft 22 kts 258°
2026-05-07 07:20 51.14683 -0.21295 214 ft 9 kts 246°
2026-05-07 07:20 51.14636 -0.21336 205 ft 9 kts 173°
2026-05-07 07:20 51.14580 -0.21313 210 ft 7 kts 163°
2026-05-07 07:20 51.14534 -0.21260 205 ft 9 kts 131°
2026-05-07 07:21 51.14520 -0.21178 209 ft 8 kts 84°
2026-05-07 07:21 51.14530 -0.21109 211 ft 9 kts 77°
2026-05-07 07:21 51.14581 -0.20734 209 ft 67 kts 77°
2026-05-07 07:21 51.14725 -0.19694 208 ft 122 kts 77°
2026-05-07 07:22 51.14939 -0.18130 222 ft 164 kts 78°
2026-05-07 07:22 51.15176 -0.16365 780 ft 162 kts 78°
2026-05-07 07:22 51.15424 -0.14614 1424 ft 162 kts 78°
2026-05-07 07:22 51.15684 -0.12798 1748 ft 178 kts 78°
2026-05-07 07:23 51.15966 -0.10798 2058 ft 195 kts 78°
2026-05-07 07:23 51.16262 -0.08587 2356 ft 215 kts 84°
2026-05-07 07:23 51.15916 -0.06260 2859 ft 224 kts 127°
2026-05-07 07:23 51.14665 -0.04785 3492 ft 229 kts 160°
2026-05-07 07:24 51.13100 -0.04082 4061 ft 243 kts 169°
2026-05-07 07:24 51.11366 -0.03621 4567 ft 260 kts 173°
2026-05-07 07:24 51.09551 -0.03200 5336 ft 266 kts 171°
2026-05-07 07:24 51.07723 -0.02607 6176 ft 270 kts 167°
2026-05-07 07:25 51.04068 -0.01032 7748 ft 277 kts 164°
2026-05-07 07:25 51.02212 -0.00154 8551 ft 280 kts 163°
2026-05-07 07:25 51.00336 0.00748 9273 ft 284 kts 163°
2026-05-07 07:26 50.98427 0.01667 9988 ft 290 kts 163°
2026-05-07 07:26 50.96483 0.02597 10656 ft 293 kts 163°
2026-05-07 07:26 50.94519 0.03530 11373 ft 296 kts 163°
2026-05-07 07:26 50.92514 0.04476 12073 ft 299 kts 164°
2026-05-07 07:27 50.90513 0.05418 12765 ft 301 kts 164°
2026-05-07 07:27 50.88492 0.06368 13461 ft 304 kts 164°
2026-05-07 07:27 50.86456 0.07323 14112 ft 307 kts 164°
2026-05-07 07:27 50.84400 0.08285 14713 ft 309 kts 164°
2026-05-07 07:28 50.82332 0.09254 15308 ft 312 kts 164°
2026-05-07 07:28 50.80242 0.10231 15878 ft 316 kts 166°
2026-05-07 07:28 50.78010 0.10624 16018 ft 332 kts 185°
2026-05-07 07:28 50.75648 0.10302 16154 ft 350 kts 186°
2026-05-07 07:29 50.73167 0.09910 16305 ft 365 kts 186°
2026-05-07 07:29 50.70622 0.09490 16740 ft 371 kts 187°
2026-05-07 07:29 50.68039 0.09062 17274 ft 375 kts 187°
2026-05-07 07:29 50.65427 0.08635 17840 ft 378 kts 186°
2026-05-07 07:30 50.62803 0.08213 18400 ft 381 kts 186°
2026-05-07 07:30 50.60150 0.07792 18907 ft 384 kts 186°
2026-05-07 07:30 50.57479 0.07374 19430 ft 387 kts 186°
2026-05-07 07:30 50.54781 0.06960 19957 ft 390 kts 186°
2026-05-07 07:31 50.52073 0.06546 20484 ft 393 kts 186°
2026-05-07 07:31 50.49337 0.06118 20990 ft 396 kts 187°
2026-05-07 07:31 50.46586 0.05678 21484 ft 399 kts 187°
2026-05-07 07:31 50.43816 0.05239 21964 ft 402 kts 187°
2026-05-07 07:32 50.41021 0.04801 22424 ft 404 kts 187°
2026-05-07 07:32 50.38217 0.04369 22880 ft 407 kts 187°
2026-05-07 07:32 50.35390 0.03932 23326 ft 410 kts 187°
2026-05-07 07:32 50.32541 0.03486 23747 ft 412 kts 187°
2026-05-07 07:33 50.29684 0.03036 24114 ft 414 kts 187°
2026-05-07 07:33 50.26803 0.02583 24482 ft 416 kts 187°
2026-05-07 07:33 50.23914 0.02133 24843 ft 418 kts 187°
2026-05-07 07:33 50.21011 0.01687 25198 ft 420 kts 187°
2026-05-07 07:34 50.18055 0.01232 25544 ft 422 kts 187°
2026-05-07 07:34 50.15125 0.00782 25881 ft 424 kts 187°
2026-05-07 07:34 50.12176 0.00382 26217 ft 427 kts 184°
2026-05-07 07:34 50.09197 0.00555 26555 ft 431 kts 174°
2026-05-07 07:35 50.06245 0.01455 26889 ft 435 kts 167°
2026-05-07 07:35 50.03304 0.02622 27221 ft 437 kts 167°
2026-05-07 07:35 50.00354 0.03792 27549 ft 439 kts 167°
2026-05-07 07:35 49.97391 0.04966 27875 ft 441 kts 167°
2026-05-07 07:36 49.94414 0.06142 28169 ft 443 kts 167°
2026-05-07 07:36 49.91424 0.07320 28537 ft 443 kts 168°
2026-05-07 07:36 49.88437 0.08488 28994 ft 442 kts 168°
2026-05-07 07:36 49.85458 0.09648 29454 ft 441 kts 168°
2026-05-07 07:37 49.82486 0.10806 29912 ft 440 kts 168°
2026-05-07 07:37 49.79521 0.11966 30335 ft 439 kts 168°
2026-05-07 07:37 49.76562 0.13125 30724 ft 438 kts 168°
2026-05-07 07:37 49.73609 0.14280 31110 ft 437 kts 168°
2026-05-07 07:38 49.70655 0.15433 31493 ft 437 kts 168°
2026-05-07 07:38 49.67708 0.16581 31883 ft 436 kts 168°
2026-05-07 07:38 49.64769 0.17742 32284 ft 436 kts 167°
2026-05-07 07:38 49.61834 0.18922 32683 ft 435 kts 167°
2026-05-07 07:39 49.58913 0.20111 33080 ft 435 kts 167°
2026-05-07 07:39 49.55987 0.21305 33471 ft 434 kts 167°
2026-05-07 07:39 49.53075 0.22488 33862 ft 433 kts 167°
2026-05-07 07:39 49.50156 0.23665 34189 ft 433 kts 167°
2026-05-07 07:40 49.47242 0.24836 34473 ft 433 kts 167°
2026-05-07 07:40 49.44327 0.26003 34753 ft 433 kts 167°
2026-05-07 07:40 49.41413 0.27167 34999 ft 433 kts 167°
2026-05-07 07:41 49.35526 0.29506 35085 ft 443 kts 167°
2026-05-07 07:41 49.29474 0.31911 35075 ft 448 kts 167°
2026-05-07 07:42 49.24465 0.33994 35076 ft 449 kts 166°
2026-05-07 07:42 49.18452 0.36577 35063 ft 449 kts 166°
2026-05-07 07:43 49.12439 0.39135 35058 ft 449 kts 166°
2026-05-07 07:43 49.06413 0.41653 35051 ft 449 kts 166°
2026-05-07 07:44 49.00384 0.44163 35064 ft 449 kts 166°
2026-05-07 07:44 48.94357 0.46671 35077 ft 449 kts 166°
2026-05-07 07:45 48.88329 0.49182 35073 ft 449 kts 166°
2026-05-07 07:45 48.82294 0.51685 35077 ft 449 kts 166°
2026-05-07 07:46 48.76266 0.54163 35078 ft 449 kts 167°
2026-05-07 07:46 48.70215 0.56545 35078 ft 449 kts 167°
2026-05-07 07:47 48.64165 0.58877 35066 ft 449 kts 167°
2026-05-07 07:47 48.58077 0.61235 35073 ft 449 kts 167°
2026-05-07 07:48 48.52031 0.63595 35079 ft 449 kts 167°
2026-05-07 07:48 48.45996 0.66015 35080 ft 449 kts 166°
2026-05-07 07:49 48.39971 0.68496 35076 ft 449 kts 166°
2026-05-07 07:49 48.33946 0.70959 35076 ft 448 kts 166°
2026-05-07 07:50 48.27927 0.73396 35074 ft 448 kts 167°
2026-05-07 07:50 48.21907 0.75808 35063 ft 448 kts 167°
2026-05-07 07:51 48.15881 0.78176 35070 ft 448 kts 167°
2026-05-07 07:51 48.09851 0.80519 35071 ft 448 kts 167°
2026-05-07 07:52 48.03821 0.82874 35071 ft 448 kts 167°
2026-05-07 07:52 47.97799 0.85245 35063 ft 447 kts 167°
2026-05-07 07:53 47.91782 0.87608 35066 ft 447 kts 167°
2026-05-07 07:53 47.85755 0.89949 35065 ft 448 kts 167°
2026-05-07 07:54 47.79728 0.92278 35047 ft 448 kts 167°
2026-05-07 07:54 47.73694 0.94601 35052 ft 448 kts 167°
2026-05-07 07:55 47.67656 0.96932 35061 ft 448 kts 167°
2026-05-07 07:55 47.61588 0.99282 35069 ft 448 kts 167°
2026-05-07 07:56 47.55550 1.01607 35066 ft 448 kts 167°
2026-05-07 07:56 47.49521 1.03920 35067 ft 448 kts 167°
2026-05-07 07:57 47.43469 1.06067 35060 ft 446 kts 174°
2026-05-07 07:57 47.37306 1.06332 35051 ft 443 kts 183°
2026-05-07 07:58 47.31146 1.06163 35051 ft 443 kts 183°
2026-05-07 07:58 47.24982 1.06017 35052 ft 443 kts 183°
2026-05-07 07:59 47.18813 1.05883 35053 ft 443 kts 183°
2026-05-07 07:59 47.12649 1.05739 35042 ft 443 kts 183°
2026-05-07 08:00 47.06482 1.05594 35046 ft 443 kts 183°
2026-05-07 08:00 47.00316 1.05445 35048 ft 443 kts 183°
2026-05-07 08:01 46.94145 1.05184 35042 ft 443 kts 184°
2026-05-07 08:01 46.87977 1.04887 35048 ft 444 kts 184°
2026-05-07 08:02 46.81805 1.04611 35053 ft 444 kts 184°
2026-05-07 08:02 46.75593 1.04348 35051 ft 444 kts 184°
2026-05-07 08:03 46.69417 1.04085 35051 ft 444 kts 184°
2026-05-07 08:03 46.63238 1.03823 35049 ft 444 kts 184°
2026-05-07 08:04 46.57066 1.03562 35049 ft 444 kts 184°
2026-05-07 08:04 46.50899 1.03303 35041 ft 443 kts 184°
2026-05-07 08:05 46.44730 1.03179 35041 ft 443 kts 182°
2026-05-07 08:05 46.38564 1.03159 35040 ft 443 kts 182°
2026-05-07 08:06 46.32407 1.03125 35035 ft 442 kts 183°
2026-05-07 08:06 46.26259 1.03067 35031 ft 441 kts 183°
2026-05-07 08:07 46.20115 1.02988 35025 ft 441 kts 183°
2026-05-07 08:07 46.13978 1.02916 35015 ft 441 kts 183°
2026-05-07 08:08 46.07843 1.02847 35023 ft 440 kts 183°
2026-05-07 08:08 46.01722 1.02780 35031 ft 440 kts 183°
2026-05-07 08:09 45.95543 1.02717 35027 ft 440 kts 183°
2026-05-07 08:09 45.89460 1.02661 35043 ft 440 kts 183°
2026-05-07 08:10 45.83310 1.02600 35045 ft 439 kts 182°
2026-05-07 08:10 45.77223 1.03675 35043 ft 443 kts 173°
2026-05-07 08:11 45.71169 1.05237 35036 ft 442 kts 173°
2026-05-07 08:11 45.65116 1.06805 35023 ft 442 kts 173°
2026-05-07 08:12 45.59059 1.08364 35025 ft 442 kts 173°
2026-05-07 08:12 45.53009 1.09905 35018 ft 441 kts 173°
2026-05-07 08:13 45.46966 1.11438 35021 ft 441 kts 173°
2026-05-07 08:13 45.40920 1.12975 35021 ft 441 kts 173°
2026-05-07 08:14 45.34887 1.14520 35019 ft 441 kts 173°
2026-05-07 08:14 45.28850 1.16067 35016 ft 441 kts 173°
2026-05-07 08:15 45.22816 1.17591 35021 ft 440 kts 174°
2026-05-07 08:15 45.16766 1.18852 35011 ft 437 kts 182°
2026-05-07 08:16 45.11747 1.18258 35019 ft 430 kts 194°
2026-05-07 08:16 45.05860 1.16732 35026 ft 430 kts 194°
2026-05-07 08:17 44.99965 1.15217 35036 ft 430 kts 194°
2026-05-07 08:17 44.94078 1.13718 35014 ft 430 kts 194°
2026-05-07 08:18 44.88188 1.12219 35018 ft 430 kts 194°
2026-05-07 08:18 44.82305 1.10717 35027 ft 430 kts 194°
2026-05-07 08:19 44.76422 1.09213 35020 ft 430 kts 194°
2026-05-07 08:19 44.70533 1.07717 35023 ft 430 kts 194°
2026-05-07 08:20 44.64648 1.06234 35037 ft 430 kts 194°
2026-05-07 08:20 44.58760 1.04746 35019 ft 430 kts 194°
2026-05-07 08:21 44.52880 1.03262 35030 ft 429 kts 194°
2026-05-07 08:21 44.46994 1.01779 35035 ft 429 kts 194°
2026-05-07 08:22 44.41110 1.00302 35022 ft 429 kts 194°
2026-05-07 08:22 44.35235 0.98825 35036 ft 429 kts 194°
2026-05-07 08:23 44.29321 0.97344 35045 ft 429 kts 194°
2026-05-07 08:23 44.23448 0.95885 35046 ft 428 kts 194°
2026-05-07 08:24 44.17581 0.94420 35039 ft 428 kts 194°
2026-05-07 08:24 44.11724 0.92960 35047 ft 428 kts 194°
2026-05-07 08:25 44.05872 0.91508 35047 ft 427 kts 194°
2026-05-07 08:25 44.00020 0.90062 35032 ft 427 kts 194°
2026-05-07 08:26 43.91248 0.87900 35048 ft 427 kts 194°
2026-05-07 08:26 43.85409 0.86432 35046 ft 426 kts 194°
2026-05-07 08:27 43.79594 0.84861 35044 ft 426 kts 195°
2026-05-07 08:27 43.73786 0.83272 35049 ft 425 kts 195°
2026-05-07 08:28 43.67984 0.81705 35051 ft 425 kts 194°
2026-05-07 08:28 43.62182 0.80165 35042 ft 425 kts 194°
2026-05-07 08:29 43.56376 0.78635 35056 ft 424 kts 194°
2026-05-07 08:29 43.50581 0.77103 35051 ft 424 kts 194°
2026-05-07 08:30 43.44753 0.75548 35055 ft 424 kts 194°
2026-05-07 08:30 43.38968 0.74023 35041 ft 423 kts 194°
2026-05-07 08:31 43.33177 0.72503 35046 ft 423 kts 194°
2026-05-07 08:31 43.27389 0.70981 35046 ft 423 kts 194°
2026-05-07 08:32 43.21608 0.69459 35034 ft 423 kts 194°
2026-05-07 08:32 43.15828 0.67946 35035 ft 423 kts 194°
2026-05-07 08:33 43.10050 0.66439 35032 ft 422 kts 194°
2026-05-07 08:33 43.04282 0.64932 35033 ft 422 kts 194°
2026-05-07 08:34 42.98512 0.63419 35025 ft 422 kts 194°
2026-05-07 08:34 42.92750 0.61915 35030 ft 421 kts 194°
2026-05-07 08:35 42.87003 0.60432 35026 ft 420 kts 194°
2026-05-07 08:35 42.81256 0.58953 35022 ft 420 kts 194°
2026-05-07 08:36 42.75517 0.57459 35023 ft 420 kts 194°
2026-05-07 08:36 42.69803 0.55854 35015 ft 417 kts 200°
2026-05-07 08:37 42.64504 0.52768 35014 ft 414 kts 207°
2026-05-07 08:37 42.59291 0.49419 35003 ft 414 kts 207°
2026-05-07 08:38 42.54077 0.46098 35009 ft 414 kts 207°
2026-05-07 08:38 42.48870 0.42775 35010 ft 414 kts 207°
2026-05-07 08:39 42.43657 0.39451 35008 ft 414 kts 207°
2026-05-07 08:39 42.38414 0.36119 35008 ft 413 kts 207°
2026-05-07 08:40 42.33203 0.32820 35011 ft 413 kts 207°
2026-05-07 08:40 42.28001 0.29518 35010 ft 413 kts 207°
2026-05-07 08:41 42.22801 0.26226 35012 ft 413 kts 207°
2026-05-07 08:41 42.17597 0.22944 34995 ft 413 kts 207°
2026-05-07 08:42 42.12396 0.19667 35000 ft 412 kts 207°
2026-05-07 08:42 42.07172 0.16493 35011 ft 413 kts 201°
2026-05-07 08:43 42.01512 0.15011 35016 ft 417 kts 189°
2026-05-07 08:43 41.95743 0.14161 35009 ft 417 kts 189°
2026-05-07 08:44 41.89975 0.13298 35018 ft 417 kts 189°
2026-05-07 08:44 41.84216 0.12431 35024 ft 417 kts 189°
2026-05-07 08:45 41.78459 0.11565 35026 ft 416 kts 189°
2026-05-07 08:45 41.72701 0.10705 35020 ft 416 kts 189°
2026-05-07 08:46 41.66948 0.09854 35024 ft 416 kts 189°
2026-05-07 08:46 41.61196 0.09004 35026 ft 416 kts 189°
2026-05-07 08:47 41.55447 0.08160 35021 ft 415 kts 189°
2026-05-07 08:47 41.49701 0.07312 35024 ft 415 kts 189°
2026-05-07 08:48 41.43923 0.06456 35024 ft 415 kts 189°
2026-05-07 08:48 41.39153 0.05754 35025 ft 415 kts 189°
2026-05-07 08:49 41.33411 0.04911 35003 ft 415 kts 189°
2026-05-07 08:49 41.27667 0.04070 35014 ft 415 kts 189°
2026-05-07 08:50 41.21936 0.03226 35018 ft 414 kts 189°
2026-05-07 08:50 41.16212 0.02379 35014 ft 414 kts 189°
2026-05-07 08:51 41.10484 0.01539 35012 ft 414 kts 189°
2026-05-07 08:51 41.04755 0.00705 35019 ft 414 kts 189°
2026-05-07 08:52 40.99029 -0.00127 35016 ft 414 kts 189°
2026-05-07 08:52 40.93307 -0.00956 35018 ft 414 kts 189°
2026-05-07 08:53 40.87538 -0.01793 35013 ft 414 kts 189°
2026-05-07 08:53 40.81809 -0.02619 35021 ft 414 kts 189°
2026-05-07 08:54 40.76088 -0.03455 35021 ft 413 kts 189°
2026-05-07 08:54 40.70374 -0.04289 35019 ft 413 kts 189°
2026-05-07 08:55 40.64662 -0.05114 35021 ft 413 kts 189°
2026-05-07 08:55 40.58961 -0.05933 35015 ft 412 kts 189°
2026-05-07 08:56 40.53363 -0.07349 35008 ft 408 kts 199°
2026-05-07 08:56 40.47929 -0.09521 35000 ft 408 kts 199°
2026-05-07 08:57 40.42493 -0.11674 34993 ft 408 kts 199°
2026-05-07 08:57 40.37057 -0.13817 34991 ft 407 kts 199°
2026-05-07 08:58 40.31631 -0.15947 34999 ft 407 kts 199°
2026-05-07 08:58 40.26206 -0.18082 34997 ft 407 kts 199°
2026-05-07 08:59 40.20792 -0.20220 34997 ft 406 kts 199°
2026-05-07 08:59 40.15386 -0.22348 35007 ft 405 kts 199°
2026-05-07 09:00 40.09988 -0.24463 35014 ft 405 kts 199°
2026-05-07 09:00 40.04555 -0.26587 35032 ft 404 kts 199°
2026-05-07 09:01 39.99208 -0.28676 35023 ft 403 kts 199°
2026-05-07 09:01 39.93838 -0.30778 35027 ft 403 kts 199°
2026-05-07 09:02 39.88440 -0.32873 35023 ft 402 kts 199°
2026-05-07 09:02 39.83082 -0.34958 35025 ft 402 kts 199°
2026-05-07 09:03 39.77723 -0.37041 34952 ft 401 kts 200°
2026-05-07 09:03 39.75056 -0.38073 34706 ft 399 kts 199°
2026-05-07 09:03 39.72397 -0.39101 34466 ft 398 kts 200°
2026-05-07 09:04 39.69746 -0.40128 33950 ft 398 kts 200°
2026-05-07 09:04 39.67084 -0.41160 33092 ft 400 kts 199°
2026-05-07 09:04 39.64419 -0.42192 32332 ft 401 kts 199°
2026-05-07 09:04 39.61741 -0.43224 31648 ft 400 kts 199°
2026-05-07 09:05 39.59105 -0.44238 31224 ft 393 kts 199°
2026-05-07 09:05 39.56498 -0.45240 30718 ft 388 kts 199°
2026-05-07 09:05 39.53920 -0.46232 30233 ft 384 kts 199°
2026-05-07 09:05 39.51376 -0.47210 29678 ft 380 kts 199°
2026-05-07 09:06 39.48855 -0.48178 29125 ft 376 kts 199°
2026-05-07 09:06 39.46363 -0.49118 28597 ft 372 kts 198°
2026-05-07 09:06 39.43884 -0.50020 28070 ft 368 kts 198°
2026-05-07 09:06 39.41424 -0.50890 27551 ft 365 kts 198°
2026-05-07 09:07 39.38983 -0.51744 27036 ft 363 kts 198°
2026-05-07 09:07 39.36553 -0.52595 26532 ft 361 kts 198°
2026-05-07 09:07 39.34139 -0.53448 26023 ft 359 kts 198°
2026-05-07 09:07 39.31740 -0.54299 25532 ft 356 kts 198°
2026-05-07 09:08 39.29354 -0.55147 25060 ft 355 kts 198°
2026-05-07 09:08 39.26977 -0.55993 24596 ft 354 kts 198°
2026-05-07 09:08 39.24610 -0.56836 24137 ft 353 kts 198°
2026-05-07 09:08 39.22245 -0.57677 23692 ft 352 kts 198°
2026-05-07 09:09 39.19859 -0.58523 23204 ft 350 kts 198°
2026-05-07 09:09 39.17513 -0.59354 22753 ft 348 kts 198°
2026-05-07 09:09 39.15193 -0.60174 22334 ft 345 kts 198°
2026-05-07 09:09 39.12889 -0.60986 21904 ft 341 kts 197°
2026-05-07 09:10 39.10603 -0.61791 21461 ft 339 kts 197°
2026-05-07 09:10 39.08335 -0.62591 21029 ft 337 kts 197°
2026-05-07 09:10 39.06083 -0.63386 20588 ft 334 kts 197°
2026-05-07 09:10 39.03850 -0.64177 20145 ft 332 kts 197°
2026-05-07 09:11 39.01624 -0.64966 19692 ft 331 kts 197°
2026-05-07 09:11 38.99406 -0.65753 19234 ft 330 kts 197°
2026-05-07 09:11 38.97191 -0.66537 18776 ft 330 kts 197°
2026-05-07 09:11 38.94974 -0.67320 18313 ft 331 kts 196°
2026-05-07 09:12 38.92754 -0.68103 17788 ft 331 kts 196°
2026-05-07 09:12 38.90537 -0.68881 17321 ft 330 kts 196°
2026-05-07 09:12 38.88327 -0.69655 16855 ft 329 kts 196°
2026-05-07 09:12 38.86126 -0.70427 16389 ft 327 kts 196°
2026-05-07 09:13 38.83934 -0.71196 15920 ft 327 kts 195°
2026-05-07 09:13 38.81740 -0.71964 15452 ft 326 kts 195°
2026-05-07 09:13 38.79557 -0.72728 14990 ft 326 kts 195°
2026-05-07 09:13 38.77372 -0.73494 14524 ft 325 kts 194°
2026-05-07 09:14 38.75192 -0.74258 14060 ft 324 kts 194°
2026-05-07 09:14 38.73019 -0.75020 13560 ft 324 kts 194°
2026-05-07 09:14 38.70846 -0.75779 13088 ft 323 kts 194°
2026-05-07 09:14 38.68680 -0.76536 12636 ft 322 kts 194°
2026-05-07 09:15 38.66523 -0.77290 12179 ft 320 kts 194°
2026-05-07 09:15 38.64384 -0.78036 11819 ft 316 kts 194°
2026-05-07 09:15 38.62305 -0.78759 11691 ft 304 kts 194°
2026-05-07 09:15 38.60298 -0.79460 11560 ft 294 kts 194°
2026-05-07 09:16 38.58365 -0.80137 11432 ft 281 kts 194°
2026-05-07 09:16 38.56541 -0.80776 11292 ft 264 kts 194°
2026-05-07 09:16 38.54818 -0.81467 11024 ft 258 kts 204°
2026-05-07 09:16 38.53332 -0.82758 10852 ft 254 kts 224°
2026-05-07 09:17 38.52181 -0.84485 10639 ft 257 kts 228°
2026-05-07 09:17 38.50986 -0.86192 10275 ft 259 kts 225°
2026-05-07 09:17 38.49716 -0.87807 10017 ft 256 kts 221°
2026-05-07 09:17 38.48382 -0.89332 9664 ft 257 kts 218°
2026-05-07 09:18 38.46997 -0.90745 9407 ft 252 kts 215°
2026-05-07 09:18 38.45575 -0.92047 8906 ft 252 kts 212°
2026-05-07 09:18 38.44106 -0.93245 8475 ft 251 kts 209°
2026-05-07 09:18 38.42581 -0.94359 8101 ft 253 kts 206°
2026-05-07 09:19 38.41013 -0.95361 7734 ft 250 kts 202°
2026-05-07 09:19 38.39435 -0.96232 7389 ft 246 kts 200°
2026-05-07 09:19 38.37839 -0.97006 7083 ft 245 kts 198°
2026-05-07 09:19 38.36231 -0.97674 6791 ft 241 kts 184°
2026-05-07 09:20 38.34650 -0.97278 6454 ft 234 kts 146°
2026-05-07 09:20 38.33649 -0.95696 6074 ft 234 kts 109°
2026-05-07 09:20 38.33304 -0.93689 5771 ft 231 kts 97°
2026-05-07 09:20 38.33124 -0.91670 5433 ft 225 kts 98°
2026-05-07 09:21 38.32890 -0.89738 5134 ft 217 kts 100°
2026-05-07 09:21 38.32634 -0.87844 4848 ft 216 kts 100°
2026-05-07 09:21 38.32378 -0.85974 4560 ft 215 kts 100°
2026-05-07 09:21 38.32122 -0.84101 4271 ft 214 kts 100°
2026-05-07 09:22 38.31867 -0.82242 3976 ft 212 kts 100°
2026-05-07 09:22 38.31618 -0.80418 3699 ft 205 kts 100°
2026-05-07 09:22 38.31454 -0.79228 3518 ft 200 kts 100°
2026-05-07 09:22 38.31218 -0.77507 3306 ft 196 kts 100°
2026-05-07 09:23 38.30983 -0.75798 3014 ft 196 kts 99°
2026-05-07 09:23 38.30747 -0.74084 2739 ft 197 kts 98°
2026-05-07 09:23 38.30515 -0.72401 2474 ft 189 kts 99°
2026-05-07 09:23 38.30293 -0.70794 2226 ft 180 kts 98°
2026-05-07 09:24 38.30081 -0.69254 1999 ft 175 kts 98°
2026-05-07 09:24 38.29872 -0.67743 1770 ft 172 kts 98°
2026-05-07 09:24 38.29667 -0.66263 1522 ft 165 kts 99°
2026-05-07 09:24 38.29482 -0.64925 1326 ft 145 kts 99°
2026-05-07 09:25 38.29311 -0.63691 1135 ft 140 kts 99°
2026-05-07 09:25 38.29143 -0.62491 984 ft 136 kts 98°
2026-05-07 09:25 38.28979 -0.61308 751 ft 136 kts 99°
2026-05-07 09:25 38.28814 -0.60127 595 ft 134 kts 97°
2026-05-07 09:26 38.28653 -0.58963 408 ft 133 kts 97°
2026-05-07 09:26 38.28488 -0.57807 245 ft 133 kts 97°
2026-05-07 09:26 38.28338 -0.56670 128 ft 117 kts 99°
2026-05-07 09:26 38.28226 -0.55875 103 ft 58 kts 101°
2026-05-07 09:27 38.28231 -0.55580 93 ft 28 kts 69°
2026-05-07 09:27 38.28272 -0.55450 91 ft 16 kts 68°
2026-05-07 09:27 38.28335 -0.55253 86 ft 12 kts 56°
2026-05-07 09:28 38.28372 -0.55185 88 ft 6 kts 55°
2026-05-07 09:28 38.28396 -0.55156 88 ft 3 kts 30°
2026-05-07 09:28 38.28414 -0.55154 89 ft 4 kts 356°
2026-05-07 09:28 38.28438 -0.55188 92 ft 5 kts 289°
2026-05-07 09:29 38.28445 -0.55230 93 ft 4 kts 280°
2026-05-07 09:29 38.28452 -0.55287 93 ft 7 kts 280°
2026-05-07 09:29 38.28461 -0.55345 97 ft 7 kts 280°
2026-05-07 09:29 38.28471 -0.55419 98 ft 8 kts 280°
2026-05-07 09:30 38.28474 -0.55463 97 ft 3 kts 257°
2026-05-07 09:30 38.28461 -0.55476 98 ft 4 kts 206°
2026-05-07 09:30 38.28430 -0.55490 97 ft 5 kts 216°
2026-05-07 09:30 38.28419 -0.55506 97 ft 0 kts 228°
2026-05-07 09:31 38.28417 -0.55509 97 ft 1 kts 228°
2026-05-07 09:31 38.28415 -0.55511 98 ft 0 kts 228°